{"data":{"norad_id":53871,"epoch":"2026-09-20T21:59:05.862048Z","epoch_age_seconds":48403,"freshness":"FRESH","line1":"1 53871U 22114BF  26263.91604007  .00000178  00000+0  16402-4 0  9992","line2":"2 53871  53.1591  91.7068 0001294  88.2906 271.8245 15.34385626223087","mean_motion":15.34385626,"eccentricity":0.0001294,"inclination_deg":53.1591,"raan_deg":91.7068,"arg_perigee_deg":88.2906,"mean_anomaly_deg":271.8245,"bstar":1.6402e-5,"rev_number":22308,"period_min":93.848637239515,"perigee_km":461.86075284238,"apogee_km":463.63117335323,"semimajor_km":6840.8829630978,"source":"CELESTRAK","updated_at":"2026-09-21T09:00:33.027296Z"}}